Temp
-7 -7 -7 -7 -7 -7 -8 -7 -7 -8 -7 -7 -7 -7 -8 -7 -8 -8 -8 -8 -8 -8 -8 -8 -8 -8 -8 -7 -7 -7 -7 -7 -7 -7 -7 -7 -7 -7 -7 -7 -7 -7 -7
-7 -7 -7 -7 -7 -7 -7 -7 -7 -7 -7 -8 -8 -8 -8 -8 -8 -8 -8 -8 -8 -8 -8 -8 -7 -8 -8 -8 -7 -7 -7 -7 -7 -7 -7 -7 -7 -7 -7 -7 -7 -7 -7
-6 -6 -6 -6 -6 -6 -7 -7 -7 -7 -8 -8 -8 -8 -8 -8 -8 -8 -8 -7 -7 -7 -7 -7 -7 -7 -7 -7 -7 -7 -7 -7 -7 -7 -7 -7 -7 -7 -7 -7 -7 -7 -7
-6 -6 -6 -6 -6 -6 -6 -7 -7 -7 -7 -8 -8 -8 -8 -8 -7 -7 -7 -7 -7 -7 -7 -7 -7 -7 -7 -6 -6 -6 -7 -7 -7 -7 -7 -7 -7 -7 -7 -7 -8 -8 -8
-6 -6 -6 -6 -6 -6 -6 -7 -7 -7 -7 -8 -8 -8 -7 -7 -7 -7 -7 -7 -7 -7 -7 -7 -6 -6 -6 -6 -6 -6 -6 -7 -7 -7 -7 -8 -8 -7 -7 -7 -7 -7 -7
-6 -6 -6 -6 -6 -6 -7 -7 -7 -7 -7 -7 -7 -7 -7 -7 -7 -7 -7 -7 -7 -7 -7 -7 -6 -6 -6 -6 -6 -6 -6 -6 -7 -7 -8 -8 -8 -8 -8 -8 -8 -8 -7
-6 -6 -6 -6 -6 -7 -7 -6 -6 -7 -7 -7 -7 -6 -6 -6 -6 -7 -7 -7 -8 -7 -7 -6 -6 -6 -6 -7 -6 -6 -6 -7 -6 -6 -6 -7 -7 -7 -7 -7 -7 -8 -8
-7 -7 -6 -6 -7 -6 -6 -6 -6 -7 -7 -7 -7 -6 -6 -6 -6 -7 -7 -7 -7 -6 -6 -6 -6 -6 -6 -6 -6 -6 -6 -6 -6 -6 -6 -6 -7 -7 -8 -7 -7 -8 -8
-7 -7 -6 -6 -7 -6 -6 -7 -7 -7 -7 -7 -7 -6 -7 -7 -7 -6 -7 -7 -7 -6 -6 -6 -6 -6 -5 -5 -6 -6 -6 -6 -6 -7 -7 -6 -7 -7 -7 -7 -7 -7 -8
-6 -6 -6 -6 -6 -6 -6 -7 -7 -7 -7 -6 -7 -6 -6 -6 -6 -6 -7 -7 -7 -7 -7 -6 -6 -6 -6 -5 -6 -6 -6 -6 -7 -7 -6 -7 -7 -7 -8 -8 -8 -7 -8
-6 -6 -6 -7 -6 -6 -7 -7 -8 -7 -7 -7 -7 -7 -6 -6 -6 -6 -6 -7 -6 -7 -6 -6 -6 -5 -6 -6 -6 -6 -6 -6 -7 -7 -7 -7 -7 -8 -7 -7 -7 -7 -7
-6 -6 -6 -6 -6 -6 -7 -8 -7 -7 -7 -7 -6 -6 -6 -6 -7 -6 -6 -6 -6 -6 -6 -6 -5 -6 -6 -6 -6 -6 -7 -7 -7 -7 -7 -7 -7 -7 -7 -7 -6 -7 -8
-5 -6 -6 -6 -6 -6 -6 -7 -7 -7 -7 -7 -6 -6 -6 -6 -6 -6 -6 -6 -6 -6 -6 -6 -6 -6 -6 -7 -7 -7 -7 -7 -7 -7 -7 -7 -7 -7 -7 -7 -7 -8 -8
-5 -5 -6 -6 -5 -5 -6 -7 -7 -7 -7 -7 -7 -7 -7 -6 -6 -6 -6 -6 -6 -6 -6 -6 -6 -6 -7 -7 -7 -7 -7 -7 -6 -7 -7 -6 -6 -6 -6 -7 -9 -9 -9
-5 -5 -6 -5 -5 -5 -5 -6 -7 -7 -7 -7 -7 -7 -6 -6 -6 -6 -6 -6 -6 -6 -6 -7 -7 -7 -7 -7 -7 -7 -7 -7 -7 -7 -6 -6 -6 -6 -6 -8 -9 -10 -11
-4 -5 -5 -5 -5 -5 -5 -5 -6 -6 -6 -6 -6 -6 -6 -6 -6 -6 -6 -6 -6 -6 -6 -6 -6 -7 -7 -7 -7 -7 -7 -6 -6 -6 -6 -6 -6 -6 -7 -9 -9 -11 -12
-4 -4 -5 -5 -5 -5 -5 -5 -6 -6 -6 -6 -6 -6 -6 -6 -6 -6 -6 -6 -6 -6 -6 -6 -6 -6 -6 -6 -6 -6 -6 -6 -6 -6 -6 -6 -6 -7 -8 -9 -10 -12 -12
-4 -4 -4 -5 -5 -5 -6 -6 -6 -6 -6 -6 -5 -6 -6 -6 -6 -6 -6 -6 -6 -7 -7 -6 -6 -6 -6 -6 -6 -6 -6 -6 -6 -6 -6 -6 -7 -7 -8 -9 -11 -12 -12
-4 -4 -4 -4 -5 -5 -5 -5 -6 -6 -6 -6 -6 -6 -6 -6 -6 -6 -6 -6 -6 -6 -6 -5 -5 -5 -5 -6 -6 -6 -6 -6 -6 -6 -6 -6 -6 -7 -8 -10 -11 -12 -11
-4 -4 -4 -4 -4 -5 -5 -5 -6 -6 -6 -6 -6 -6 -6 -6 -6 -6 -6 -6 -6 -6 -6 -6 -6 -6 -6 -6 -6 -6 -6 -6 -6 -7 -7 -7 -7 -7 -8 -9 -11 -11 -11
-4 -3 -4 -4 -4 -4 -5 -6 -6 -6 -6 -6 -6 -6 -6 -6 -6 -6 -6 -6 -6 -6 -6 -6 -7 -7 -7 -6 -6 -6 -7 -6 -7 -7 -7 -7 -7 -7 -8 -9 -11 -11 -11
-4 -4 -3 -4 -4 -4 -4 -5 -5 -5 -6 -6 -7 -7 -7 -6 -6 -6 -6 -6 -6 -7 -7 -6 -7 -7 -6 -7 -7 -6 -6 -6 -7 -7 -7 -7 -7 -7 -8 -9 -10 -10 -10
-4 -4 -4 -4 -4 -4 -4 -4 -4 -5 -5 -6 -6 -6 -7 -7 -6 -6 -6 -7 -7 -7 -7 -6 -6 -7 -6 -7 -7 -6 -6 -6 -7 -7 -7 -7 -7 -8 -8 -9 -10 -10 -10
-4 -4 -4 -4 -4 -4 -4 -4 -4 -4 -5 -5 -5 -6 -6 -7 -6 -6 -6 -7 -7 -7 -7 -6 -7 -7 -7 -7 -7 -6 -7 -7 -7 -7 -7 -7 -7 -8 -8 -8 -9 -10 -10
-4 -4 -4 -4 -4 -4 -4 -4 -4 -4 -4 -5 -5 -5 -6 -6 -7 -6 -6 -6 -6 -6 -7 -7 -7 -7 -7 -7 -7 -7 -7 -7 -7 -7 -7 -8 -8 -8 -8 -8 -9 -10 -10
-4 -4 -4 -4 -4 -4 -4 -4 -4 -4 -5 -5 -5 -5 -6 -6 -6 -6 -6 -6 -6 -6 -7 -7 -7 -7 -7 -7 -7 -7 -7 -7 -7 -7 -8 -8 -8 -8 -8 -8 -9 -9 -10
Height
5886 5887 5886 5887 5886 5885 5884 5884 5885 5885 5885 5886 5887 5887 5888 5887 5888 5889 5890 5892 5893 5894 5895 5896 5896 5896 5896 5895 5895 5895 5895 5895 5894 5894 5895 5895 5897 5897 5899 5899 5899 5900 5900
5888 5888 5889 5889 5889 5888 5887 5886 5886 5887 5888 5888 5890 5890 5890 5890 5891 5892 5892 5892 5893 5894 5895 5896 5897 5897 5897 5897 5897 5896 5895 5894 5895 5894 5894 5894 5896 5897 5898 5898 5899 5899 5899
5891 5891 5892 5892 5891 5891 5890 5890 5890 5890 5890 5890 5891 5891 5891 5891 5892 5892 5893 5893 5895 5896 5896 5896 5895 5896 5895 5895 5894 5893 5894 5894 5894 5892 5892 5895 5896 5896 5896 5897 5898 5898 5898
5894 5895 5895 5895 5895 5894 5893 5893 5892 5893 5892 5892 5892 5892 5892 5892 5891 5892 5894 5896 5897 5897 5896 5896 5895 5894 5894 5893 5893 5892 5893 5894 5894 5893 5893 5894 5895 5897 5897 5897 5897 5897 5897
5897 5897 5897 5898 5897 5896 5895 5895 5894 5893 5893 5893 5893 5893 5892 5892 5893 5894 5895 5896 5895 5895 5895 5896 5896 5896 5895 5895 5894 5894 5894 5893 5893 5893 5893 5893 5895 5896 5896 5896 5896 5896 5895
5899 5899 5900 5900 5899 5899 5898 5896 5895 5894 5894 5893 5894 5894 5894 5893 5893 5894 5895 5896 5896 5897 5897 5896 5896 5897 5896 5896 5894 5895 5894 5892 5891 5891 5892 5893 5894 5895 5894 5894 5894 5894 5895
5901 5901 5901 5901 5901 5900 5898 5897 5897 5896 5896 5896 5895 5895 5895 5894 5895 5895 5895 5895 5895 5896 5896 5896 5898 5897 5897 5897 5896 5896 5895 5894 5892 5891 5890 5890 5892 5892 5893 5893 5892 5890 5891
5902 5903 5902 5903 5902 5901 5899 5899 5898 5898 5896 5896 5897 5897 5897 5896 5897 5896 5895 5895 5894 5895 5896 5899 5899 5899 5900 5898 5897 5896 5895 5894 5893 5892 5891 5890 5890 5891 5891 5890 5889 5888 5887
5904 5904 5904 5904 5902 5901 5902 5900 5900 5899 5898 5898 5897 5898 5898 5898 5897 5897 5897 5896 5895 5896 5899 5900 5901 5902 5903 5902 5900 5898 5897 5895 5894 5893 5892 5891 5890 5889 5888 5887 5887 5884 5883
5906 5906 5905 5906 5904 5903 5903 5902 5902 5902 5901 5900 5900 5899 5898 5898 5899 5899 5899 5899 5899 5900 5902 5903 5904 5904 5904 5904 5902 5899 5898 5896 5895 5893 5893 5892 5890 5888 5886 5883 5881 5879 5877
5910 5908 5908 5908 5907 5906 5905 5904 5904 5903 5903 5902 5902 5902 5901 5901 5901 5901 5902 5902 5903 5904 5905 5906 5906 5907 5907 5906 5902 5900 5898 5896 5895 5894 5892 5890 5887 5885 5882 5879 5876 5873 5872
5912 5911 5911 5910 5910 5908 5907 5907 5906 5904 5904 5905 5905 5904 5904 5903 5904 5905 5906 5905 5906 5907 5908 5908 5909 5908 5907 5905 5901 5900 5898 5896 5894 5893 5891 5888 5886 5883 5880 5877 5874 5869 5866
5915 5915 5914 5913 5912 5911 5910 5910 5910 5908 5907 5908 5909 5908 5907 5907 5907 5908 5909 5910 5909 5909 5909 5910 5909 5909 5907 5905 5903 5901 5898 5896 5894 5891 5888 5886 5883 5880 5875 5871 5867 5864 5861
5918 5918 5917 5916 5915 5915 5913 5912 5913 5913 5912 5912 5912 5911 5911 5911 5910 5912 5913 5913 5912 5911 5911 5911 5911 5909 5907 5903 5901 5898 5896 5894 5892 5890 5887 5883 5880 5876 5872 5867 5862 5859 5856
5922 5921 5919 5918 5917 5918 5916 5915 5915 5916 5917 5917 5916 5916 5916 5916 5916 5917 5917 5916 5915 5915 5915 5914 5913 5910 5908 5905 5902 5898 5896 5894 5891 5888 5885 5881 5875 5871 5865 5859 5854 5846 5843
5925 5925 5924 5922 5920 5920 5920 5919 5918 5918 5920 5921 5921 5920 5920 5919 5920 5920 5919 5919 5919 5919 5917 5917 5914 5913 5909 5906 5902 5899 5897 5895 5891 5888 5884 5880 5873 5865 5857 5851 5843 5836 5831
5927 5927 5927 5926 5925 5924 5924 5923 5923 5923 5922 5923 5924 5923 5923 5923 5922 5922 5923 5923 5922 5921 5920 5918 5915 5913 5910 5906 5903 5901 5898 5895 5891 5887 5882 5877 5871 5862 5851 5843 5836 5829 5823
5929 5929 5929 5929 5928 5927 5926 5927 5927 5927 5927 5927 5927 5926 5926 5926 5925 5925 5926 5925 5924 5922 5921 5919 5916 5914 5910 5907 5904 5902 5898 5894 5888 5884 5880 5875 5868 5856 5848 5840 5831 5826 5821
5930 5931 5931 5931 5930 5930 5930 5929 5929 5930 5931 5931 5930 5930 5930 5929 5929 5929 5928 5927 5925 5923 5920 5918 5915 5912 5910 5907 5904 5899 5895 5891 5886 5882 5876 5869 5862 5854 5846 5836 5829 5823 5818
5931 5933 5935 5933 5932 5932 5932 5932 5932 5932 5933 5934 5933 5933 5934 5933 5932 5931 5929 5928 5926 5923 5920 5917 5915 5912 5910 5907 5903 5897 5892 5887 5881 5876 5871 5866 5861 5852 5844 5834 5825 5819 5814
5931 5934 5936 5935 5933 5933 5933 5934 5934 5933 5934 5935 5935 5935 5936 5936 5934 5933 5930 5928 5926 5923 5920 5918 5915 5912 5909 5904 5900 5895 5890 5885 5880 5875 5871 5865 5858 5850 5841 5830 5822 5814 5809
5930 5933 5936 5937 5935 5935 5936 5936 5936 5936 5936 5936 5936 5936 5936 5936 5933 5933 5932 5929 5925 5923 5920 5917 5915 5911 5908 5904 5898 5894 5890 5885 5880 5875 5870 5863 5856 5848 5838 5827 5817 5810 5805
5929 5931 5935 5937 5936 5934 5935 5937 5937 5937 5936 5936 5937 5937 5936 5935 5934 5933 5932 5930 5927 5923 5920 5917 5915 5911 5906 5903 5898 5893 5888 5883 5879 5873 5868 5862 5855 5845 5836 5826 5815 5808 5803
5927 5930 5933 5935 5935 5935 5935 5935 5935 5936 5936 5937 5937 5937 5936 5935 5934 5933 5932 5930 5927 5924 5921 5917 5914 5909 5905 5902 5898 5893 5887 5882 5878 5873 5867 5861 5854 5845 5835 5824 5814 5806 5800
5926 5929 5931 5933 5934 5934 5935 5935 5935 5935 5935 5936 5936 5937 5937 5935 5935 5934 5932 5929 5927 5924 5920 5917 5913 5909 5907 5903 5899 5894 5888 5883 5878 5872 5867 5861 5853 5845 5835 5824 5813 5803 5796
5925 5928 5930 5932 5933 5933 5934 5933 5934 5935 5935 5935 5936 5935 5936 5935 5935 5934 5932 5930 5927 5924 5921 5917 5914 5911 5908 5905 5900 5895 5889 5884 5878 5872 5866 5860 5852 5843 5833 5823 5813 5803 5795
Wind_Speed
17 16 15 13 11 11 10 11 11 11 12 13 13 13 14 15 16 15 14 13 13 12 13 12 11 9 9 10 8 6 5 4 2 2 2 4 7 8 9 9 8 8 8
17 17 15 14 13 11 10 10 10 10 10 10 11 11 12 12 13 13 13 13 13 13 12 12 11 9 8 7 7 4 3 2 3 6 7 7 8 8 9 9 9 8 9
18 19 18 17 15 13 12 11 11 11 10 10 11 10 9 9 9 9 9 10 10 9 8 9 9 8 6 5 5 5 3 3 4 5 7 11 11 11 11 11 11 11 11
19 18 18 16 16 15 14 14 14 15 14 12 10 9 8 6 5 5 6 8 7 6 5 5 4 3 3 4 4 6 6 3 6 7 3 9 10 10 10 11 12 13 12
18 17 14 14 15 15 15 15 14 14 15 13 11 9 8 7 8 8 8 8 5 4 2 2 3 4 5 5 8 9 8 9 8 6 5 4 8 7 7 8 9 11 12
16 15 13 14 15 16 14 13 13 13 14 13 11 8 9 10 10 11 11 10 8 7 5 3 5 8 7 9 8 7 7 11 11 7 5 3 2 4 5 7 9 11 14
14 14 14 16 18 16 14 13 13 14 14 14 11 10 10 12 12 11 11 10 6 6 3 1 7 7 7 8 8 9 11 13 11 13 9 4 1 4 6 8 11 13 15
14 14 14 16 18 16 13 15 14 14 12 12 12 13 14 12 11 12 11 12 8 8 3 10 9 10 13 10 9 9 8 10 10 11 8 2 1 4 8 11 12 14 17
13 14 15 16 17 15 18 17 15 11 11 10 14 12 11 11 14 11 16 18 22 18 15 14 14 12 12 12 11 10 10 11 11 14 11 7 6 6 8 11 12 14 18
13 15 15 17 15 15 18 16 16 12 11 11 13 14 19 16 17 19 20 18 20 21 22 18 15 14 12 13 12 11 11 11 11 11 12 11 11 11 10 13 14 16 18
14 16 16 17 14 17 16 17 12 13 15 22 19 19 19 17 15 16 17 17 20 23 22 17 15 15 11 12 14 13 14 14 12 12 11 8 11 14 14 16 16 16 20
14 15 16 16 15 19 20 21 21 21 21 22 19 17 17 17 17 18 20 25 19 17 15 16 14 13 13 13 12 11 10 11 10 11 9 8 11 13 17 17 19 25 27
14 14 16 16 17 21 21 19 22 22 21 20 21 21 22 20 20 22 21 22 21 19 13 14 13 12 10 11 16 18 16 14 13 12 13 16 19 22 25 29 31 29 32
12 15 16 17 17 21 23 20 20 20 21 21 22 22 21 20 21 23 21 18 18 17 14 12 10 9 12 17 20 20 20 17 16 17 17 21 25 28 32 36 36 32 25
11 14 16 17 18 18 21 22 20 18 24 23 22 24 28 26 24 21 20 18 17 13 11 9 9 10 13 17 20 20 20 18 16 18 21 25 30 35 39 43 45 42 31
10 13 15 15 17 18 18 22 22 25 26 23 25 24 25 26 24 22 17 14 12 11 11 11 12 11 14 16 21 20 18 16 15 19 22 26 32 39 45 48 50 38 30
9 11 13 14 14 16 16 19 22 23 20 20 22 23 23 21 20 19 16 13 12 11 10 10 11 13 14 17 20 19 16 14 15 19 22 28 34 41 49 53 46 31 26
8 9 11 13 13 14 16 18 19 18 17 19 23 20 20 19 18 16 14 14 11 11 11 11 11 13 13 16 18 16 15 15 16 20 24 29 36 45 51 50 39 27 27
7 7 9 12 13 13 13 15 15 17 18 20 18 21 17 17 16 14 14 14 12 11 12 12 14 15 15 15 17 18 20 19 20 23 27 33 40 45 51 46 36 24 25
7 7 6 11 13 13 13 13 13 13 14 14 13 14 15 12 12 12 11 10 9 10 12 13 14 15 17 18 20 20 22 23 25 27 30 35 39 46 51 47 33 26 23
8 5 6 9 13 13 11 10 12 13 12 10 10 11 10 8 10 9 9 10 9 11 14 16 16 18 21 23 24 23 22 24 24 26 29 34 39 46 50 48 31 30 23
6 4 2 5 10 13 12 11 9 9 10 11 9 8 8 7 10 8 8 9 10 12 15 16 17 18 21 22 25 24 24 23 24 25 28 33 38 44 48 49 38 32 24
7 6 4 3 6 9 11 10 11 11 10 7 6 7 8 8 9 8 8 8 11 13 15 17 18 19 23 24 26 26 26 25 25 26 28 33 37 44 48 49 40 31 27
11 9 8 6 7 7 8 8 9 10 11 11 8 6 7 6 5 3 5 7 9 11 14 19 21 22 24 25 25 27 27 26 26 28 30 32 36 41 46 48 44 32 29
13 13 11 8 7 9 8 7 8 7 9 10 10 7 5 4 2 3 5 7 10 12 16 21 22 24 23 23 25 27 27 28 28 30 31 31 35 39 44 47 45 37 29
16 13 13 12 9 8 9 7 5 5 5 6 7 8 5 3 2 4 5 8 11 16 19 21 21 22 22 23 26 27 28 28 29 31 32 32 34 39 43 45 46 41 34
Wind_Direction
93 92 94 98 100 89 81 76 71 69 68 70 69 66 68 69 74 82 87 90 96 100 93 93 90 91 78 72 65 59 70 69 37 313 231 187 198 195 193 187 196 206 207
93 95 94 97 93 91 83 72 68 67 68 69 67 63 68 75 74 79 87 96 103 110 118 119 113 103 83 67 54 53 86 50 350 279 254 227 223 218 213 204 203 217 224
91 98 102 99 97 93 89 86 75 67 67 71 77 76 79 89 92 95 100 99 97 99 108 117 112 105 98 70 60 72 93 86 39 3 244 231 225 221 220 222 218 218 225
95 95 99 96 90 84 82 79 78 76 72 76 87 96 102 102 108 105 84 85 83 84 78 74 87 79 68 79 67 51 54 41 29 39 36 234 233 230 231 228 226 229 228
96 95 93 85 80 77 73 74 79 85 87 79 84 98 114 104 81 72 73 78 88 95 104 137 140 110 85 65 53 43 32 17 5 1 32 192 220 238 248 260 261 260 256
92 93 92 82 77 73 78 81 90 92 94 98 96 91 84 80 83 81 82 81 75 78 96 114 90 70 59 63 62 64 63 22 26 14 328 279 224 234 258 270 280 276 272
86 83 83 83 80 77 83 86 92 92 95 97 106 98 93 96 89 77 71 65 57 88 96 109 64 56 45 45 67 59 33 34 39 30 29 84 172 277 288 293 281 280 276
81 77 79 81 84 87 77 80 88 87 97 101 92 84 76 73 69 70 62 45 53 116 110 60 79 70 57 54 84 61 34 46 43 27 23 49 272 283 295 291 284 278 271
82 77 79 84 88 91 79 79 91 86 78 74 74 82 61 66 71 79 67 75 81 92 82 91 80 86 71 78 82 75 52 49 36 21 8 357 345 313 299 300 293 296 275
79 80 78 86 97 91 89 91 92 81 75 66 86 71 68 89 87 82 74 76 89 81 87 83 79 81 76 73 70 65 58 47 29 22 24 16 0 348 325 294 277 282 281
78 83 84 89 92 92 96 99 74 66 79 89 84 91 66 81 87 85 84 89 90 92 78 76 77 73 67 67 57 49 39 29 23 13 23 11 346 336 335 330 279 278 289
78 81 86 96 98 97 94 98 79 80 85 80 78 86 75 90 89 96 98 97 99 108 80 88 83 68 58 54 51 49 42 40 32 31 27 5 358 350 332 325 302 282 285
83 82 91 97 95 99 102 98 92 82 85 81 75 83 83 86 96 101 105 101 92 97 96 86 66 59 56 57 51 45 41 34 35 36 15 360 351 345 332 324 313 296 283
88 92 100 107 104 101 102 100 96 93 92 84 79 78 86 92 106 116 112 104 93 91 83 67 64 60 45 41 37 30 24 19 24 21 6 353 349 341 331 320 313 309 291
86 92 103 115 110 102 102 101 96 101 108 98 90 88 91 93 99 117 115 100 95 92 94 92 71 50 39 34 31 24 16 14 12 5 359 352 344 334 324 321 323 320 303
97 90 94 111 112 103 103 99 97 102 108 106 102 97 94 94 93 97 95 98 103 101 93 82 67 49 38 30 24 19 11 7 357 0 355 347 338 330 325 328 333 325 302
102 93 93 106 115 108 101 101 103 97 97 98 105 98 96 97 95 92 95 101 100 87 80 72 58 43 32 25 17 13 5 348 353 353 349 343 337 330 332 336 337 340 332
103 101 98 96 122 112 110 101 102 100 89 107 98 96 97 93 93 92 90 89 87 77 74 65 49 40 27 19 13 4 0 357 353 354 349 342 339 337 337 340 343 344 345
106 105 103 98 99 119 112 111 99 95 92 106 94 97 97 94 91 86 80 78 76 66 59 49 37 30 21 10 6 5 3 0 354 354 349 346 346 338 341 344 347 342 338
125 116 127 108 100 105 113 122 121 114 109 105 99 92 90 89 88 84 81 80 71 55 43 33 23 17 16 10 7 8 5 360 356 353 349 348 342 341 345 346 344 340 335
135 124 139 134 113 102 106 114 127 131 130 120 111 103 100 91 87 76 73 69 57 42 35 27 18 5 8 7 5 6 2 358 355 351 346 346 343 343 347 346 347 341 334
140 136 191 153 124 110 99 98 101 107 123 132 130 117 103 81 69 59 44 40 39 29 21 14 10 6 5 3 6 2 1 357 351 346 346 347 344 345 349 349 350 348 350
168 168 206 189 147 122 115 102 91 89 93 101 116 107 82 64 52 41 30 18 25 20 9 5 4 7 5 5 4 359 358 354 351 346 345 345 346 347 350 354 350 347 347
180 186 207 206 168 155 138 126 112 96 84 77 77 84 83 68 54 29 30 21 18 9 3 1 7 10 8 2 2 359 358 354 349 344 344 344 347 348 352 357 355 348 343
190 195 205 211 202 177 174 151 129 114 94 81 69 69 81 64 12 351 10 11 10 6 7 4 8 9 7 359 3 2 1 356 350 347 343 343 345 349 354 359 1 354 346
194 201 205 217 212 205 196 181 153 130 108 88 74 56 49 59 357 329 340 13 16 14 13 10 12 6 4 4 8 7 5 1 355 352 345 345 344 349 353 357 1 1 348